This demonstration page uses our WeatherBlox Daily Observations layout. Learn more.

38.89511, -77.03637

Hourly Observations for September 2, 2015

Temp ( °F °C ) Dew Point ( °F °C ) Humidity (%) Winds ( mph kmh ) Pressure ( in mb ) Visibility ( mi km ) Precip ( " mm )
12:52 am 00:52 Cloudy 79 26 73 23 84 84 Calm 30.06 1018 10 16.09344 0 0
1:52 am 01:52 Mostly Cloudy 81 27 73 23 79 79 Calm 30.03 1017 10 16.09344 0 0
2:52 am 02:52 Mostly Cloudy 79 26 72 22 79 79 Calm 30.03 1017 10 16.09344 0 0
3:52 am 03:52 Mostly Cloudy 79 26 73 23 84 84 Calm 30.03 1017 10 16.09344 0 0
4:52 am 04:52 Cloudy 77 25 72 22 83 83 SSW 3 6 30.03 1017 10 16.09344 0 0
5:52 am 05:52 Cloudy 75 24 73 23 94 94 Calm 30.03 1017 7 11.265408 0 0
6:52 am 06:52 Cloudy 75 24 72 22 89 89 N 6 9 30.03 1017 7 11.265408 0 0
7:52 am 07:52 Cloudy with Haze 77 25 70 21 79 79 N 6 9 30.06 1018 6 9.656064 0 0
8:52 am 08:52 Cloudy 79 26 72 22 79 79 NE 3 6 30.06 1018 7 11.265408 0 0
9:52 am 09:52 Cloudy 82 28 72 22 70 70 NNE 3 6 30.06 1018 8 12.874752 0 0
10:52 am 10:52 Cloudy 86 30 66 19 52 52 NW 8 13 30.06 1018 10 16.09344 0 0
11:52 am 11:52 Cloudy 88 31 66 19 49 49 NNW 7 11 30.03 1017 10 16.09344 0 0
12:52 pm 12:52 Cloudy 90 32 66 19 46 46 N 6 9 30 1016 10 16.09344 0 0
1:52 pm 13:52 Mostly Cloudy 91 33 66 19 44 44 N 7 11 30 1016 10 16.09344 0 0
2:52 pm 14:52 Mostly Cloudy 91 33 64 18 41 41 N 5 7 29.97 1015 10 16.09344 0 0
3:52 pm 15:52 Mostly Cloudy 91 33 64 18 41 41 W 9 15 29.94 1014 10 16.09344 0 0
4:35 pm 16:35 Cloudy 91 33 66 19 44 44 WNW 6 9 29.94 1014 10 16.09344 0 0
4:52 pm 16:52 Cloudy 91 33 66 19 44 44 W 6 9 29.94 1014 10 16.09344 0 0
5:52 pm 17:52 Cloudy 88 31 68 20 52 52 W 9 15 29.94 1014 10 16.09344 0 0
6:52 pm 18:52 Cloudy 88 31 66 19 49 49 WNW 7 11 29.94 1014 10 16.09344 0 0
7:52 pm 19:52 Mostly Cloudy 84 29 68 20 58 58 N 7 11 29.94 1014 10 16.09344 0 0
8:52 pm 20:52 Mostly Cloudy 82 28 68 20 62 62 SW 5 7 29.94 1014 10 16.09344 0 0
9:52 pm 21:52 Mostly Clear 79 26 70 21 74 74 S 6 9 29.94 1014 10 16.09344 0 0
10:52 pm 22:52 Clear 79 26 70 21 74 74 SSW 3 6 29.94 1014 10 16.09344 0 0
11:52 pm 23:52 Clear 77 25 70 21 79 79 SSW 3 6 29.94 1014 10 16.09344 0 0

Powered by AerisWeather